sat.trackr.live / text

‹ back to catalog

STARLINK-35305

NORAD 66561 · 2025-268E

PAYLOAD ACTIVE UNKNOWN

§ Identity

Operator
Country
US
Launch date
2025-11-21
Launch site
AFETR
Launch vehicle
Mass (kg)
RCS (m²)

Purposes: comms

External: N2YO · Heavens-Above · Gunter

§ Orbital elements

Epoch: 2026-09-20T21:21:11.037312Z

Period
94.27 min
Inclination
43.0034°
Eccentricity
0.0002986
Mean motion
15.27593636 rev/d
Perigee alt
481.0 km
Apogee alt
485.1 km
Semi-major
6,861.1 km
B*
4.5922e-4
RAAN
324.6280°
Arg perigee
265.0909°
Mean anomaly
94.9602°
Rev number
4,781

§ Raw data

STARLINK-353051 66561U 25268E   26263.88971108  .00012402  00000+0  45922-3 0  99912 66561  43.0034 324.6280 0002986 265.0909  94.9602 15.27593636 47818

JSON: /api/v1/satellites/66561 · /tle

For live sub-satellite position, see the globe view (requires WebGL).

§ Visibility from observer

Set your observer location to see the next 7 days of passes ≥ 10°. The values pass through the URL so the page stays shareable.

No JS? Fill the form by hand. The geolocation button needs JavaScript.